Wind_Speed
9 10 13 19 19 20 22 20 21 18 22 19 30 25 25 13 10 20 20 20 16 15 15 21 25 25 26 26 26 30 25 26 27 25 23 21 18 16 14 14 13 14 12 13
6 13 15 6 8 18 27 19 21 18 18 23 17 26 26 25 18 13 19 21 19 16 15 17 23 25 26 27 29 27 30 29 27 23 20 17 17 14 12 10 10 13 16 15
13 6 11 11 14 19 24 17 16 19 22 24 13 19 24 28 22 17 14 18 20 19 18 18 19 25 25 26 28 28 29 27 25 22 20 15 12 11 8 7 10 12 15 17
9 5 11 14 16 21 19 21 10 22 16 15 20 12 22 26 24 23 19 19 20 20 18 18 19 23 25 24 22 22 25 25 24 22 21 17 16 15 12 15 17 18 18 19
3 5 11 14 17 17 12 7 16 16 16 18 21 12 21 21 20 26 23 22 22 20 19 20 20 23 23 21 21 19 21 22 22 22 17 15 13 12 13 16 20 18 18 18
14 8 10 15 11 13 10 12 25 13 12 13 18 19 13 21 26 25 24 21 21 20 19 19 22 23 20 19 21 18 21 21 19 18 16 15 13 15 16 17 17 18 16 18
10 16 13 13 12 13 5 7 8 10 8 11 16 13 8 22 20 21 22 21 19 19 19 19 20 18 20 20 20 21 21 19 19 18 17 15 14 14 15 18 17 20 21 21
5 4 14 12 10 9 17 16 5 14 11 10 12 9 6 3 15 20 18 18 17 18 18 19 20 19 23 24 23 21 20 19 18 17 16 15 15 13 13 15 15 17 17 15
5 1 8 11 11 11 15 19 10 6 3 11 10 4 6 7 13 14 15 19 18 17 17 19 19 21 24 24 22 20 19 17 15 14 13 13 12 13 13 14 16 15 19 19
6 3 8 8 10 11 15 8 4 5 7 10 8 9 11 13 13 13 19 15 16 16 16 16 17 20 21 20 18 16 16 15 14 13 10 10 10 11 13 16 16 20 22 20
8 4 9 8 9 13 9 9 5 6 6 1 8 8 6 9 6 8 17 18 15 15 16 17 15 18 18 17 17 15 14 12 10 10 10 9 11 15 17 20 22 25 21 20
6 4 5 11 9 9 10 9 8 2 2 6 2 7 7 8 8 5 10 8 9 14 15 15 15 17 18 17 16 14 13 13 12 13 16 19 20 21 23 24 24 22 22 21
8 3 4 6 6 8 10 7 6 4 7 6 2 8 2 9 9 9 6 8 10 10 14 15 14 14 16 18 18 18 18 20 22 24 25 24 23 24 25 29 29 27 20 20
4 6 6 5 6 13 10 7 8 8 3 1 12 12 5 7 10 11 10 6 6 11 13 14 14 15 21 21 21 23 24 25 26 27 28 30 30 29 26 25 26 24 19 14
8 5 11 7 1 4 8 11 9 9 4 4 7 4 7 6 8 10 12 8 4 12 13 13 14 17 19 22 24 25 26 27 28 28 30 31 31 31 29 27 21 18 15 10
11 3 6 3 2 7 8 8 9 8 3 5 2 6 6 5 6 9 10 12 13 6 11 14 18 17 18 22 23 23 22 23 25 27 28 29 29 30 26 28 22 16 15 10
8 7 5 2 0 8 9 10 8 5 6 3 2 10 8 6 8 10 8 9 10 10 12 14 15 16 20 23 22 22 22 22 25 29 29 28 28 24 21 21 22 18 10 9
9 11 6 4 4 10 9 8 8 7 2 3 1 4 8 9 9 9 9 6 8 9 11 13 15 22 21 20 24 25 26 27 26 24 20 20 21 20 28 22 17 15 10 8
10 6 5 4 5 6 8 12 6 6 6 12 5 8 10 12 9 9 9 8 7 9 10 16 23 25 25 26 26 28 25 26 26 26 21 17 20 23 20 18 16 12 10 8
4 7 5 5 4 2 8 14 8 5 5 14 10 8 10 12 5 2 5 8 9 12 13 17 22 27 30 27 29 31 26 25 25 21 20 20 18 19 25 19 14 10 9 7
2 3 5 3 4 5 13 13 5 8 5 15 11 3 10 5 7 15 10 10 12 14 16 18 22 24 23 26 30 31 28 25 21 24 19 22 22 21 19 15 11 11 8 8
4 4 2 4 3 3 17 8 7 9 13 11 12 6 14 15 15 14 12 11 11 16 18 19 22 23 22 25 32 30 28 25 23 24 23 21 21 16 14 15 11 9 9 8
2 2 4 5 3 5 9 9 11 12 13 9 6 14 17 17 16 14 12 12 13 17 19 18 23 23 20 22 26 30 24 28 26 31 27 20 19 15 13 12 11 9 7 7
7 2 3 8 6 14 7 14 14 14 14 12 12 15 17 19 16 16 13 10 11 16 19 20 22 22 22 22 25 28 27 25 23 26 26 22 18 13 12 12 11 10 8 9
6 9 6 4 5 9 7 16 17 11 10 9 14 15 19 19 18 16 13 13 16 19 21 20 22 22 23 22 22 21 20 20 22 22 19 18 16 12 13 14 14 15 15 12
2 1 3 2 6 4 11 15 15 7 4 7 12 15 16 18 18 16 14 18 17 18 20 20 19 21 22 22 21 20 17 17 17 17 15 14 13 12 12 14 16 18 14 16
Wind_Direction
195 221 235 240 240 240 263 237 230 233 223 216 225 228 225 220 213 221 217 213 210 195 189 189 188 186 186 185 180 183 177 187 178 177 186 184 187 185 192 198 195 188 182 172
200 234 263 249 262 276 256 237 238 221 223 227 230 226 234 224 235 226 218 209 204 185 180 183 186 185 184 186 187 183 185 186 180 180 189 179 182 188 192 196 194 193 161 169
252 267 211 237 229 251 238 225 237 227 214 213 227 232 214 226 224 229 225 210 200 191 182 182 184 184 184 190 189 187 187 185 183 176 178 171 168 169 138 141 152 150 150 158
268 203 239 243 226 234 212 226 237 261 202 193 216 216 205 217 217 222 206 199 194 192 183 182 181 184 189 191 188 188 187 183 181 181 186 176 182 184 157 148 137 137 155 143
265 239 239 231 238 230 226 316 246 246 187 208 185 249 183 202 205 207 210 196 197 188 185 187 185 184 182 180 175 183 184 182 184 188 191 178 183 152 147 146 142 143 143 150
255 203 235 252 269 225 138 244 247 212 187 214 176 225 153 185 196 198 199 194 190 185 180 185 188 181 179 173 171 177 182 179 178 180 179 183 171 164 155 156 155 157 160 160
207 225 228 245 231 201 207 227 180 183 191 202 174 214 21 191 195 197 192 183 184 181 177 178 183 182 179 178 169 178 182 183 188 189 190 192 184 180 167 168 170 163 169 169
288 198 203 183 229 173 208 226 298 173 187 127 157 219 122 285 181 200 191 171 174 182 175 179 180 178 179 177 179 182 178 182 186 190 194 198 200 198 200 195 184 175 172 169
316 98 165 168 208 228 209 220 257 314 336 142 172 158 115 146 158 191 192 180 176 178 177 176 178 179 180 176 176 180 180 186 189 191 192 197 198 199 190 181 176 152 171 157
286 264 180 168 226 237 268 219 201 229 181 148 173 171 106 141 161 175 191 173 166 173 173 177 178 185 178 172 174 178 183 186 185 185 173 175 170 172 166 157 150 152 143 148
276 281 148 167 212 201 207 220 266 319 319 145 152 110 43 82 81 141 171 180 165 171 172 169 167 169 170 165 168 167 168 167 172 159 162 159 152 149 140 136 133 143 138 133
316 302 207 196 169 263 226 262 231 325 144 7 179 92 69 61 86 117 139 158 154 166 163 161 160 156 155 156 146 132 136 134 127 124 134 130 128 123 131 130 130 134 127 123
335 276 206 171 182 211 254 221 260 12 301 24 245 119 90 35 47 57 79 118 144 151 149 150 147 147 144 120 125 124 116 104 106 108 111 113 122 126 126 128 127 125 121 122
267 285 322 346 57 163 212 234 228 231 265 107 62 123 151 41 23 19 21 56 130 149 148 147 148 141 115 124 111 102 99 108 117 117 112 100 98 100 98 104 118 116 121 110
2 330 328 324 71 229 204 190 193 221 304 273 70 81 84 59 33 14 4 11 102 139 145 145 146 111 110 107 105 102 103 110 113 109 109 110 124 124 121 113 98 102 95 90
342 293 290 272 262 219 229 204 197 222 188 254 323 101 84 66 52 43 27 33 31 84 131 120 100 107 107 110 108 110 113 116 117 114 113 118 117 118 118 113 110 93 86 89
301 328 5 270 181 176 214 215 196 199 234 297 233 76 121 81 57 33 32 47 56 38 54 97 104 103 110 122 124 118 117 116 113 118 121 122 119 108 101 105 113 111 111 116
279 319 315 298 292 184 64 15 270 232 250 131 25 93 82 102 82 50 34 59 75 75 77 88 99 104 108 112 107 111 110 108 106 101 106 108 112 109 113 106 102 102 109 107
230 285 303 310 305 123 84 26 357 343 94 13 341 102 124 126 108 50 42 56 55 80 89 98 103 100 98 100 105 104 106 108 105 105 105 111 109 104 99 98 103 107 114 109
173 246 307 327 296 24 17 348 341 215 180 21 349 146 172 174 169 116 93 72 59 63 77 94 102 103 101 108 111 105 99 99 101 100 106 104 106 109 107 106 103 108 108 105
177 205 264 293 261 119 353 346 308 225 29 339 337 256 183 181 53 124 114 93 82 82 85 89 91 93 105 117 114 105 105 99 104 104 104 104 105 97 96 98 95 94 96 93
12 324 266 283 251 82 354 14 17 329 318 317 302 188 104 110 112 117 116 112 109 104 96 94 94 93 100 110 113 107 99 111 111 110 99 94 90 92 94 94 93 92 98 97
24 108 302 326 29 344 62 22 347 334 325 319 85 121 129 131 125 122 115 117 111 106 102 104 103 97 91 100 106 103 110 117 113 109 103 100 96 95 93 96 94 88 84 85
326 219 258 315 4 335 271 6 351 339 335 309 149 132 141 131 128 126 118 109 110 108 110 113 110 107 102 103 106 114 119 115 112 106 103 98 96 94 90 82 76 73 59 60
272 312 322 302 10 331 3 354 339 345 4 85 126 143 138 136 135 133 126 122 125 124 123 126 115 115 115 113 111 112 117 122 112 107 110 107 107 104 92 78 70 72 57 57
243 275 324 339 360 319 321 334 342 1 39 113 127 134 142 139 136 131 130 132 136 125 115 108 114 116 116 115 115 120 126 123 118 117 118 118 125 122 113 103 87 69 72 69
Height
753 756 758 749 740 733 720 711 709 702 699 703 703 703 702 692 694 692 691 694 697 703 706 711 718 725 733 738 743 747 749 757 761 762 770 773 777 781 784 788 790 792 795 797
751 751 738 743 756 759 731 713 704 698 694 698 697 701 696 693 691 687 687 687 692 697 704 710 716 721 729 734 738 742 750 755 757 761 769 771 775 779 782 787 789 791 791 794
738 733 737 743 748 749 723 716 714 698 693 695 697 696 694 687 686 684 681 679 685 691 702 707 714 719 725 731 735 740 746 750 755 760 767 769 774 777 781 784 787 788 792 793
730 726 733 729 733 723 714 704 721 715 687 702 693 694 687 683 685 683 681 679 680 688 695 703 710 716 722 728 734 740 745 749 753 759 764 766 770 773 778 783 786 788 791 793
726 733 734 727 715 709 712 715 710 699 683 682 688 686 659 670 678 676 674 672 675 681 691 698 704 712 719 726 731 738 744 747 752 758 761 765 768 773 779 782 784 787 790 794
721 723 725 715 704 703 713 738 715 687 675 690 676 673 654 663 660 663 665 664 669 676 686 695 701 709 716 724 727 735 743 747 752 756 760 764 767 773 777 781 783 786 789 793
713 712 716 714 713 704 709 713 699 696 689 682 663 674 650 643 650 653 658 661 667 673 682 691 698 704 713 719 723 734 740 745 750 754 758 763 768 772 775 779 782 784 788 790
709 715 704 701 702 703 714 697 678 683 679 669 666 677 653 649 639 646 650 655 667 672 676 686 695 702 710 716 724 731 736 743 748 752 756 761 765 769 773 778 781 785 789 791
720 703 691 696 688 686 689 696 676 666 653 662 670 658 650 651 652 652 652 656 665 671 674 684 693 701 707 715 722 729 735 741 746 750 754 758 763 768 772 777 781 783 785 790
708 706 690 691 691 684 683 666 679 667 680 671 668 663 660 660 659 655 656 656 663 670 675 681 689 698 704 713 721 728 734 739 745 749 754 759 763 768 772 776 780 784 787 791
704 704 695 691 694 687 683 681 674 667 666 659 679 667 665 666 664 655 652 656 661 668 673 679 687 698 706 714 722 729 735 740 745 750 755 759 764 768 772 777 780 784 789 794
708 704 695 685 672 675 672 674 671 677 682 663 652 674 671 671 668 664 663 664 661 666 672 680 689 698 707 714 721 731 736 742 747 752 756 760 765 770 774 778 784 791 794 794
720 706 699 690 685 683 681 673 674 675 673 678 667 683 672 668 667 668 667 666 669 671 672 681 690 700 707 716 726 733 740 745 749 753 758 763 768 773 779 783 787 792 798 798
727 708 704 704 675 677 689 679 678 679 683 676 666 680 679 676 676 673 673 673 670 672 680 685 693 701 714 724 730 737 742 746 751 755 761 767 774 781 788 791 791 794 798 803
723 720 708 688 683 680 678 680 681 683 675 683 674 675 680 686 687 684 682 675 675 675 683 688 693 708 720 729 735 741 746 751 755 759 764 771 775 781 787 792 799 802 803 812
725 732 720 697 683 681 682 675 677 677 680 680 679 680 686 691 689 695 698 698 690 682 684 690 709 719 729 737 741 747 753 757 759 763 769 776 780 785 792 789 797 806 811 816
736 725 718 710 684 681 692 677 676 678 676 678 685 679 691 699 704 715 716 716 719 716 710 711 718 728 737 742 746 752 758 762 765 771 775 780 785 790 795 798 799 805 816 820
738 728 715 705 689 701 682 675 671 676 674 674 681 685 691 710 724 728 727 727 728 726 725 726 729 736 742 746 752 758 762 766 772 779 787 791 793 797 789 798 808 811 818 820
744 743 726 711 699 683 687 695 694 694 692 685 682 696 713 720 724 735 737 736 736 734 733 734 737 741 746 751 757 763 770 775 779 784 792 799 799 798 803 807 811 815 820 822
744 746 745 717 710 711 713 699 693 691 698 703 693 695 714 710 703 733 743 743 743 742 741 741 743 746 749 758 762 767 777 782 787 793 797 800 805 806 803 810 815 819 822 823
745 742 736 731 717 711 715 699 690 699 716 715 708 695 704 706 706 737 746 748 749 749 749 750 751 754 759 765 767 773 782 789 795 795 804 803 808 808 810 814 818 819 821 822
743 739 729 713 707 720 717 707 715 725 716 714 708 700 715 724 735 744 750 752 755 755 757 758 760 764 769 772 773 779 784 792 797 803 805 808 810 815 817 817 821 822 823 824
748 756 750 735 734 731 727 729 728 724 718 709 708 713 720 730 740 748 754 757 759 760 762 766 766 771 776 777 777 780 792 795 801 801 806 812 815 820 822 822 823 825 826 824
738 738 740 735 735 734 729 723 728 724 718 711 711 715 725 732 743 751 758 761 763 765 768 771 774 777 781 785 787 792 795 798 804 806 808 813 816 822 825 824 826 827 826 824
745 742 739 730 738 730 729 730 729 724 722 714 718 726 731 736 744 752 758 763 767 769 772 776 777 784 787 790 793 795 800 805 807 809 813 816 819 826 829 829 830 830 832 832
736 746 739 739 739 739 734 735 730 727 726 725 726 732 735 740 746 755 763 768 771 771 771 774 782 786 789 792 796 801 805 807 809 813 816 820 825 828 830 832 834 835 837 833